Location: DARK SKY Beskydy - Park tmavé oblohy, www.darkskybeskydy.cz
(49.4926°N, 18.5016°E)
Time: 11:59:01
(UTC+02:00)

BlueWalker 3 - Pass Details

Date: 25 June 2024
Orbit: 480 x 491 km, 53.2° (Epoch: 23 July)

Event Time Altitude Azimuth Distance (km) Brightness Sun altitude
Rises 00:30:42 0° 292° (WNW) 2,540 5.9 -17.0°
Reaches altitude 10° 00:32:53 10° 295° (WNW) 1,658 4.9 -17.0°
Maximum altitude 00:36:37 70° 20° (NNE) 513 2.1 -17.1°
Drops below altitude 10° 00:40:20 10° 104° (ESE) 1,653 4.4 -17.1°
Enters shadow 00:41:10 - 105° (ESE) 1,985 4.8 -17.1°
